Flag for Germany Weather past 2 weeks in Wismar, Mecklenburg-Western Pomerania, Germany

Now
31 °F

Fog.


Feels Like: 27 °F
Forecast: 35 / 39 °F
Wind: 5 mph from West

Location: Schwerin

Current Time: Jan 25, 2015 at 12:12:24 PM

Latest Report: Jan 25, 2015 at 11:00 AM


Visibility: 1 mi

Pressure: 30.26 "Hg

Humidity: 98%

Dew point: 31 °F

Location of WismarLocation

Historic Weather in Wismar — Graph

°F

Wismar temperature yesterday

Maximum temperature yesterday: 33 °F (at 9:00 PM)
Minimum temperature yesterday: 27 °F (at 12:00 AM)
Average temperature yesterday: 30 °F

Past Weeks' High & Low Weather Summary

 TemperatureHumidityPressure
High52 °F (Jan 10, 11:00 AM)99% (Jan 20, 9:00 PM)30.33 "Hg (Jan 20, 9:00 PM)
Low27 °F (Jan 23, 11:00 PM)60% (Jan 10, 7:00 PM)29.29 "Hg (Jan 10, 2:00 PM)
Average37 °F87%29.81 "Hg
* Reported Jan 10 11:00 AM — Jan 25 11:00 AM, Wismar, Weather by CustomWeather, © 2014

Note: Actual official high and low records may vary slightly from our data, if they occured in-between our weather recording intervals... More about our weather records

Advertising

Wismar weather history for previous 24 hours

 ConditionsComfort  
Time TempWeatherWind HumidityBarometerVisibility
11:00 AM
Jan 25
31 °FFog.5 mph98%30.26 "Hg1 mi
9:00 AM30 °FFog.5 mph99%30.24 "Hg1 mi
8:00 AM30 °FFog.5 mph98%30.22 "Hg2 mi
7:00 AM30 °FFog.6 mph98%30.21 "Hg3 mi
6:00 AM30 °FFog.6 mph96%30.20 "Hg4 mi
3:00 AM30 °FPassing clouds.5 mph96%30.16 "Hg5 mi
2:00 AM31 °FClear.5 mph95%30.16 "Hg7 mi
1:00 AM32 °FPassing clouds.6 mph92%30.15 "Hg7 mi
12:00 AM33 °FPassing clouds.6 mph91%30.14 "Hg7 mi
11:00 PM
Jan 24
33 °FFog.5 mph94%30.13 "Hg4 mi
9:00 PM33 °FFog.5 mph98%30.09 "Hg2 mi
8:00 PM33 °FFog.3 mph99%30.09 "Hg1 mi
7:00 PM32 °FLow clouds.3 mph98%30.06 "Hg2 mi
6:00 PM31 °FLight snow. Low clouds.5 mph98%30.04 "Hg1 mi
5:00 PM31 °FLight snow. Low clouds.5 mph98%30.02 "Hg1 mi
4:00 PM30 °FLight snow. Low clouds.6 mph97%30.01 "Hg2 mi
3:00 PM30 °FLight snow. Overcast.6 mph96%30.01 "Hg2 mi
2:00 PM31 °FLight snow. Low clouds.6 mph88%30.01 "Hg2 mi
1:00 PM32 °FOvercast.6 mph78%30.01 "Hg6 mi
12:00 PM32 °FOvercast.7 mph76%30.02 "Hg7 mi
Weather by CustomWeather, © 2014

See weather overviewHow to use our weather pages